When you browse on this site, cookies collect data to enhance your experience and personalize the content and advertising you see.
Visit our Privacy Policy to learn more. By continuing to use the site, you agree to this use of cookies and data.
  • In United Kingdom
  • List of Countries
  • For 7 days
  • Water Temperature
  • Weather Map
  • Weather Widgets
  • user-avatar
    Login

    Hourly Weather Ravda

    Today, 18 October, Friday

    Time Temperature Precipitation Wind Pressure Humidity
    00:00 +14°C° 0 mm 0 mps 763 mmHg 90%
    01:00 +14°C° 0 mm 0 mps 763 mmHg 90%
    02:00 +15°C° 0 mm 1 mps 764 mmHg 88%
    03:00 +14°C° 0 mm 1 mps 763 mmHg 87%
    04:00 +14°C° 0 mm 1 mps 763 mmHg 86%
    05:00 +14°C° 0 mm 1 mps 763 mmHg 85%
    06:00 +15°C° 0 mm 1 mps 763 mmHg 82%
    07:00 +15°C° 0 mm 0 mps 763 mmHg 78%
    08:00 +16°C° 0 mm 0 mps 764 mmHg 74%
    09:00 +17°C° 0 mm 0 mps 764 mmHg 67%
    10:00 +19°C° 0 mm 0 mps 764 mmHg 60%
    11:00 +23°C° 0 mm 1 mps 764 mmHg 53%
    12:00 +24°C° 0 mm 1 mps 763 mmHg 51%
    13:00 +24°C° 0 mm 1 mps 763 mmHg 49%
    14:00 +25°C° 0 mm 2 mps 762 mmHg 47%
    15:00 +23°C° 0 mm 2 mps 762 mmHg 56%
    16:00 +21°C° 0 mm 2 mps 762 mmHg 64%
    17:00 +19°C° 0 mm 2 mps 762 mmHg 73%
    18:00 +18°C° 0 mm 2 mps 762 mmHg 77%
    19:00 +17°C° 0 mm 2 mps 762 mmHg 81%
    20:00 +17°C° 0 mm 2 mps 762 mmHg 85%
    21:00 +16°C° 0 mm 1 mps 763 mmHg 86%
    22:00 +16°C° 0 mm 1 mps 763 mmHg 86%
    23:00 +16°C° 0 mm 1 mps 763 mmHg 87%

    Tomorrow, 19 October, Saturday

    Time Temperature Precipitation Wind Pressure Humidity
    00:00 +15°C° 0 mm 0 mps 763 mmHg 86%
    01:00 +14°C° 0 mm 0 mps 763 mmHg 86%
    02:00 +14°C° 0 mm 0 mps 762 mmHg 85%
    03:00 +14°C° 0 mm 0 mps 763 mmHg 85%
    04:00 +14°C° 0 mm 0 mps 763 mmHg 85%
    05:00 +14°C° 0 mm 0 mps 763 mmHg 84%
    06:00 +15°C° 0 mm 0 mps 763 mmHg 81%
    07:00 +16°C° 0 mm 0 mps 763 mmHg 77%
    08:00 +16°C° 0 mm 0 mps 763 mmHg 74%
    09:00 +20°C° 0 mm 1 mps 763 mmHg 67%
    10:00 +22°C° 0 mm 1 mps 763 mmHg 60%
    11:00 +24°C° 0 mm 1 mps 764 mmHg 53%
    12:00 +24°C° 0 mm 2 mps 763 mmHg 52%
    13:00 +25°C° 0 mm 2 mps 763 mmHg 51%
    14:00 +25°C° 0 mm 2 mps 763 mmHg 50%
    15:00 +24°C° 0 mm 2 mps 763 mmHg 58%
    16:00 +21°C° 0 mm 2 mps 763 mmHg 66%
    17:00 +19°C° 0 mm 2 mps 763 mmHg 74%
    18:00 +19°C° 0 mm 2 mps 763 mmHg 78%
    19:00 +18°C° 0 mm 2 mps 763 mmHg 82%
    20:00 +17°C° 0 mm 2 mps 764 mmHg 86%
    21:00 +17°C° 0 mm 2 mps 764 mmHg 86%
    22:00 +16°C° 0 mm 2 mps 764 mmHg 86%
    23:00 +16°C° 0 mm 1 mps 764 mmHg 87%

    Day after tomorrow, 20 October, Sunday

    Time Temperature Precipitation Wind Pressure Humidity
    00:00 +16°C° 0 mm 1 mps 764 mmHg 87%
    01:00 +16°C° 0 mm 1 mps 764 mmHg 87%
    02:00 +16°C° 0 mm 1 mps 764 mmHg 86%
    03:00 +15°C° 0 mm 1 mps 764 mmHg 86%
    04:00 +14°C° 0 mm 0 mps 764 mmHg 86%
    05:00 +14°C° 0 mm 0 mps 764 mmHg 86%
    06:00 +15°C° 0 mm 0 mps 764 mmHg 83%
    07:00 +16°C° 0 mm 0 mps 765 mmHg 80%
    08:00 +16°C° 0 mm 0 mps 765 mmHg 77%
    09:00 +20°C° 0 mm 1 mps 765 mmHg 70%
    10:00 +22°C° 0 mm 1 mps 765 mmHg 63%
    11:00 +24°C° 0 mm 2 mps 765 mmHg 55%
    12:00 +24°C° 0 mm 2 mps 765 mmHg 54%
    13:00 +24°C° 0 mm 2 mps 765 mmHg 53%
    14:00 +25°C° 0 mm 3 mps 764 mmHg 52%
    15:00 +23°C° 0 mm 2 mps 764 mmHg 59%
    16:00 +21°C° 0 mm 2 mps 764 mmHg 65%
    17:00 +19°C° 0 mm 2 mps 764 mmHg 72%
    18:00 +19°C° 0 mm 2 mps 765 mmHg 76%
    19:00 +18°C° 0 mm 2 mps 765 mmHg 81%
    20:00 +17°C° 0 mm 2 mps 765 mmHg 85%
    21:00 +16°C° 0 mm 1 mps 765 mmHg 86%
    22:00 +16°C° 0 mm 1 mps 765 mmHg 87%
    23:00 +16°C° 0 mm 1 mps 765 mmHg 88%

    21 October, Monday

    Time Temperature Precipitation Wind Pressure Humidity
    00:00 +14°C° 0 mm 0 mps 765 mmHg 88%
    01:00 +14°C° 0 mm 0 mps 765 mmHg 87%
    02:00 +14°C° 0 mm 0 mps 765 mmHg 87%
    03:00 +14°C° 0 mm 0 mps 765 mmHg 87%
    04:00 +14°C° 0 mm 0 mps 765 mmHg 86%
    05:00 +13°C° 0 mm 0 mps 765 mmHg 86%
    06:00 +14°C° 0 mm 0 mps 765 mmHg 82%
    07:00 +15°C° 0 mm 0 mps 766 mmHg 78%
    08:00 +16°C° 0 mm 0 mps 766 mmHg 74%
    09:00 +20°C° 0 mm 1 mps 766 mmHg 67%
    10:00 +22°C° 0 mm 1 mps 766 mmHg 59%
    11:00 +23°C° 0 mm 2 mps 766 mmHg 52%
    12:00 +24°C° 0 mm 2 mps 766 mmHg 50%
    13:00 +24°C° 0 mm 2 mps 766 mmHg 49%
    14:00 +25°C° 0 mm 2 mps 765 mmHg 48%
    15:00 +23°C° 0 mm 2 mps 765 mmHg 54%
    16:00 +21°C° 0 mm 2 mps 765 mmHg 61%
    17:00 +19°C° 0 mm 2 mps 765 mmHg 68%
    18:00 +18°C° 0 mm 2 mps 765 mmHg 72%
    19:00 +18°C° 0 mm 1 mps 765 mmHg 76%
    20:00 +18°C° 0 mm 1 mps 765 mmHg 79%
    21:00 +16°C° 0 mm 1 mps 765 mmHg 80%
    22:00 +15°C° 0 mm 0 mps 765 mmHg 80%
    23:00 +15°C° 0 mm 0 mps 765 mmHg 80%

    22 October, Tuesday

    Time Temperature Precipitation Wind Pressure Humidity
    00:00 +15°C° 0 mm 0 mps 765 mmHg 80%
    01:00 +15°C° 0 mm 1 mps 765 mmHg 79%
    02:00 +15°C° 0 mm 1 mps 765 mmHg 79%
    03:00 +15°C° 0 mm 1 mps 765 mmHg 78%
    04:00 +15°C° 0 mm 1 mps 765 mmHg 77%
    05:00 +15°C° 0 mm 1 mps 765 mmHg 76%
    06:00 +16°C° 0 mm 1 mps 765 mmHg 72%
    07:00 +18°C° 0 mm 1 mps 765 mmHg 68%
    08:00 +19°C° 0 mm 1 mps 765 mmHg 65%
    09:00 +21°C° 0 mm 1 mps 765 mmHg 58%
    10:00 +23°C° 0 mm 1 mps 765 mmHg 51%
    11:00 +25°C° 0 mm 1 mps 765 mmHg 44%
    12:00 +25°C° 0 mm 1 mps 765 mmHg 43%
    13:00 +26°C° 0 mm 1 mps 765 mmHg 42%
    14:00 +26°C° 0 mm 2 mps 765 mmHg 40%
    15:00 +24°C° 0 mm 2 mps 765 mmHg 47%
    16:00 +23°C° 0 mm 2 mps 764 mmHg 55%
    17:00 +20°C° 0 mm 2 mps 764 mmHg 62%
    18:00 +20°C° 0 mm 1 mps 765 mmHg 65%
    19:00 +19°C° 0 mm 1 mps 765 mmHg 69%
    20:00 +18°C° 0 mm 1 mps 765 mmHg 72%
    21:00 +18°C° 0 mm 1 mps 765 mmHg 72%
    22:00 +18°C° 0 mm 1 mps 765 mmHg 72%
    23:00 +16°C° 0 mm 1 mps 765 mmHg 72%

    23 October, Wednesday

    Time Temperature Precipitation Wind Pressure Humidity
    00:00 +16°C° 0 mm 1 mps 765 mmHg 72%
    01:00 +16°C° 0 mm 1 mps 765 mmHg 72%
    02:00 +16°C° 0 mm 2 mps 765 mmHg 73%
    03:00 +16°C° 0 mm 2 mps 765 mmHg 73%
    04:00 +15°C° 0 mm 2 mps 765 mmHg 73%
    05:00 +15°C° 0 mm 2 mps 766 mmHg 73%
    06:00 +16°C° 0 mm 2 mps 766 mmHg 70%
    07:00 +17°C° 0 mm 2 mps 766 mmHg 67%
    08:00 +17°C° 0 mm 2 mps 766 mmHg 64%
    09:00 +19°C° 0 mm 3 mps 766 mmHg 58%
    10:00 +21°C° 0 mm 3 mps 766 mmHg 53%
    11:00 +22°C° 0 mm 4 mps 766 mmHg 47%
    12:00 +23°C° 0 mm 4 mps 766 mmHg 50%
    13:00 +23°C° 0 mm 5 mps 766 mmHg 53%
    14:00 +23°C° 0 mm 6 mps 765 mmHg 56%
    15:00 +22°C° 0 mm 6 mps 765 mmHg 64%
    16:00 +20°C° 0 mm 5 mps 765 mmHg 71%
    17:00 +19°C° 0 mm 5 mps 765 mmHg 79%
    18:00 +17°C° 0 mm 5 mps 765 mmHg 83%
    19:00 +16°C° 0 mm 5 mps 766 mmHg 87%
    20:00 +15°C° 0 mm 4 mps 766 mmHg 92%
    21:00 +15°C° 0 mm 4 mps 766 mmHg 92%
    22:00 +15°C° 0 mm 4 mps 766 mmHg 93%
    23:00 +16°C° 0 mm 3 mps 766 mmHg 93%
    Show more